Notices

What's New in latest Release from April 7th, 2021:

- Updated Glossary, including Speed of Maximum Gust, and Total Hourly Precipitation

- Updated national and regional climate services offices contacts and prices information

- Addition of station inventory lists for 1981-2010, 1971-2000, and 1961-1990 Normals.

If you haven't already, please take our survey and provide feedback about our website: https://eccc.sondage-survey.ca/f/LanguageSelection.aspx?s=442ca660-fcf1-47c0-95a9-59707d6fd709

Hourly Data Report for October 25, 2017

VICTORIA UNIVERSITY CS
BRITISH COLUMBIA

48°27'25.200" N
123°18'16.600" W
60.10 m
1018598
71783
WYJ

Download Data

Hourly Data (October 2017)
Hourly Data Report for October 25, 2017
TIME
LST
Temp Definition
°C
Dew Point Definition
°C
Rel Hum Definition
%
Precip. Amount Definition
mm

Wind Dir Definition
10's deg

Wind Spd Definition
km/h
Visibility Definition
km
Stn Press Definition
kPa
Hmdx Definition


Wind Chill Definition


Weather Definition


00:00 8.1 6.6 91 0.0 16 4   101.46     LegendNANA
01:00 9.1 7.7 91 0.0 21 5   101.40     LegendNANA
02:00 9.7 7.6 87 0.0 20 4   101.32     LegendNANA
03:00 9.9 8.0 88 0.0 22 7   101.27     LegendNANA
04:00 10.6 8.8 89 0.0 18 5   101.22     LegendNANA
05:00 10.8 9.6 92 0.0 21 5   101.18     LegendNANA
06:00 14.3 11.5 83 0.0 26 6   101.10     LegendNANA
07:00 11.2 9.6 90 0.0 15 3   101.10     LegendNANA
08:00 13.8 12.0 89 0.0 22 9   101.07     LegendNANA
09:00 13.7 12.2 91 0.0 23 8   101.13     LegendNANA
10:00 11.5 10.3 92 0.0 17 12   101.13     LegendNANA
11:00 14.1 12.7 91 0.0 14 4   101.13     LegendNANA
12:00 14.8 11.8 82 0.0 21 7   101.09     LegendNANA
13:00 11.2 10.6 96 0.0 2 6   101.15     LegendNANA
14:00 11.8 10.4 91 0.0 16 2   101.19     LegendNANA
15:00 11.2 9.9 92 0.0 14 3   101.26     LegendNANA
16:00 10.9 10.0 94 0.0 8 3   101.32     LegendNANA
17:00 9.6 8.9 96 0.0 0 1   101.30     LegendNANA
18:00 7.9 7.5 97 0.0 0 1   101.33     LegendNANA
19:00 7.3 6.9 98 0.0 29 3   101.40     LegendNANA
20:00 6.9 6.6 98 0.0 35 1   101.47     LegendNANA
21:00 6.7 6.5 99 0.0 0 1   101.49     LegendNANA
22:00 6.4 6.2 98 0.0 0 1   101.59     LegendNANA
23:00 8.5 8.3 99 0.0 34 5   101.64     LegendNANA

Notes on Data Quality.

Legend

  • E = Estimated
  • M = Missing
  • NA = Not Available*
  • [empty] = Indicates an unobserved value
Date modified: